Tracking 26931 objects as of 6-Feb-2023
HD Live streaming from Space Station
objects crossing your sky now

SCOUT B-1 R/B

Track SCOUT B-1 R/B now!
10-day predictions


NORAD ID: 6180
Int'l Code: 1972-069B
Perigee: 651.1 km
Apogee: 708.1 km
Inclination: 90.0 °
Period: 98.2 minutes
Semi major axis: 7050 km
RCS: 0.7995 m2 (medium)
Launch date: September 2, 1972
Source: United States (US)
Launch site: AIR FORCE WESTERN TEST RANGE (AFWTR)

Note: This is a ROCKET BODY
Your satellite tracking list
Your tracking list is empty




NASA's NSSDC Master Catalog

Two Line Element Set (TLE):
1  6180U 72069B   23037.05138889  .00002257  00000-0  40063-3 0  9998
2  6180  89.9969 215.1290 0040447 156.5771 203.7300 14.66435728667996
Source of the keplerian elements: AFSPC